Regional Weather Roundup
Issued by NWS

Home | Current Version | Previous Version | Graphics & Text | Print | Product List | Glossary Off
Versions: 1 2 3 4 5 6 7 8 9 10 11 12 13 14 15 16 17 18 19 20 21 22 23 24 25 26 27 28 29 30 31 32 33 34 35 36 37 38 39 40 41 42 43 44 45 46 47 48 49 50

000
ASUS43 KDTX 120910
RWRMI
MICHIGAN HOURLY REGIONAL WEATHER ROUNDUP
NATIONAL WEATHER SERVICE DETROIT/PONTIAC MI
400 AM EST FRI FEB 12 2016

NOTE: "FAIR" INDICATES FEW OR NO CLOUDS BELOW 12,000 FEET WITH NO
SIGNIFICANT WEATHER AND/OR OBSTRUCTION TO VISIBILITY.

MIZ047>049-052>055-059>063-066>070-074>076-081>083-121000-
SOUTHEAST LOWER MICHIGAN

CITY           SKY/WX    TMP DP  RH WIND       PRES   REMARKS
ADRIAN         PTCLDY    11   6  81 SW5       30.16F WCI   3
ALMA           CLOUDY    17  11  78 SW7       30.08F WCI   7
ANN ARBOR      CLEAR      5   2  87 SW3       30.14F
BAD AXE        CLOUDY    12   6  76 SW12      30.06F WCI  -2
CARO           CLOUDY     9   5  85 S7        30.08F WCI  -3
DETROIT CITY   CLEAR     13   6  74 SW8       30.15F WCI   2
DETROIT        CLEAR     12   5  73 SW9       30.17F WCI   0
FLINT          CLOUDY    13   5  70 SW9       30.10F WCI   1
GROSSE ILE     CLEAR     14   7  73 CALM      30.15F
HILLSDALE      CLOUDY    13   5  71 SW6       30.11F WCI   4
HOWELL         CLEAR     11   6  82 SW6       30.10F WCI   1

CITY           SKY/WX    TMP DP  RH WIND       PRES   REMARKS
JACKSON        CLEAR     12   4  70 SW10      30.11F WCI  -1
LAMBERTVILLE   CLEAR     13   8  79 SW3       30.18F
LANSING        CLOUDY    13   6  74 SW9       30.11F WCI   1
LAPEER         CLOUDY     9   6  88 SW7       30.10F WCI  -2
MASON          PTCLDY    11   6  79 SW5       30.11F WCI   3
MONROE         CLEAR     12   7  78 SW6       30.17F WCI   3
MT. CLEMENS    CLEAR     12   8  82 SW8       30.12F WCI   1
PONTIAC        CLEAR      7   4  87 SW5       30.09F WCI  -2
PORT HOPE        N/A     13   6  74 SW10      30.03F WCI   0
PORT HURON     CLEAR      9   5  85 SW3       30.12F
TRI CITIES     CLOUDY    15   7  70 SW10      30.08F WCI   2
MIDLAND        CLOUDY    15   8  71 SW8       30.07F WCI   4
TROY           CLEAR     13  10  85 SW5       30.14F WCI   5
SAGINAW HB     CLOUDY    14  10  85 SW9       30.08F WCI   2
$$
MIZ043>046-050>051-056>058-064>065-071>073-077>080-121000-
SOUTHWEST LOWER MICHIGAN

CITY           SKY/WX    TMP DP  RH WIND       PRES   REMARKS
BATTLE CREEK   CLOUDY    12   4  70 SW8       30.12F WCI   0
BENTON HARBOR  CLOUDY    14   7  73 VRB3      30.15F
BIG RAPIDS     CLOUDY    17   8  69 SW9       30.02F WCI   5
COLDWATER      CLOUDY    13   7  75 SW8       30.13F WCI   2
FREMONT        CLOUDY    19   8  62 SW7       30.06F WCI   9
HOLLAND        CLOUDY    22  10  60 W13       30.12F WCI  10
GRAND RAPIDS   CLOUDY    17   9  70 SW9       30.10F WCI   6
IONIA          CLOUDY    15   8  74 SW9       30.09F WCI   3
KALAMAZOO      CLOUDY    13   5  70 SW10      30.13F WCI   0
LUDINGTON      CLOUDY    21   7  53 NW14G21   30.07F WCI   8
MARSHALL       CLOUDY    13   5  73 SW7       30.11F WCI   2
MOUNT PLEASANT CLOUDY    17   8  67 SW6       30.05F WCI   9
MUSKEGON       CLOUDY    23   6  48 W16G23    30.10F WCI  10
SOUTH HAVEN    CLOUDY    23  11  59 W12G18    30.13F WCI  12
$$
MIZ016>042-121000-
NORTHERN LOWER MICHIGAN

CITY           SKY/WX    TMP DP  RH WIND       PRES   REMARKS
ALPENA         CLOUDY    15   6  67 SW9G18    29.95F WCI   3
BEAVER ISLAND  CLOUDY    19   8  62 W14G28    29.95F WCI   6
BELLAIRE       CLOUDY    20   7  57 W5        29.99F WCI  14
CADILLAC       CLOUDY    14   7  74 SW9       29.96F WCI   1
CHARLEVOIX     CLOUDY    20   9  63 W20G30    29.99F WCI   4
FRANKFORT      CLOUDY    19   7  59 W16       30.03F WCI   5
GAYLORD        LGT SNOW  15  10  80 SW12      29.91F WCI   2
GRAYLING       CLOUDY    15   6  68 SW9G16    29.96F WCI   3
HARBOR SPRINGS CLOUDY    19   7  60 W8        29.94F WCI   9
HOUGHTON LAKE  CLOUDY    11   5  77 SW10      29.97F WCI  -3
MANISTEE       CLOUDY    19   7  58 W15G29    30.04F WCI   5
OSCODA         CLOUDY    13   7  74 SW13      30.00F WCI  -1
PELLSTON       CLOUDY    18   6  59 W16       29.94  WCI   3
ROGERS CITY    LGT SNOW  15  11  83 SW7       29.94F WCI   5
TRAVERSE CITY  CLOUDY    19   8  62 W9        30.00F WCI   8
$$
MIZ007>008-015-121000-
EASTERN UPPER MICHIGAN

CITY           SKY/WX    TMP DP  RH WIND       PRES   REMARKS
KINROSS        MOCLDY    10   7  85 W10G18    29.87F WCI  -3
MACKINAC ISLAN CLOUDY    17   8  67 W18G28    29.91F WCI   0
NEWBERRY       CLOUDY     9   6  86 W15       29.91F FOG     WCI  -7
S. S. MARIE    LGT SNOW  15  10  80 W15G23    29.85F VSB 1   WCI   0
MUNISING         N/A     12   3  67 SW8G18    29.96F WCI   0
$$
MIZ004>006-011>014-085-121000-
CENTRAL UPPER MICHIGAN

CITY           SKY/WX    TMP DP  RH WIND       PRES   REMARKS
MANISTIQUE     CLEAR     11  -1  58 W12G20    29.97F WCI  -3
ESCANABA       PTCLDY    12  -2  52 W12       30.01F WCI  -2
MENOMINEE      CLOUDY    14  -2  48 W7        30.05S WCI   4
SAWYER-GWINN   CLEAR      4   0  82 W3        29.94F
$$
MIZ001>003-009>011-084-121000-
WESTERN UPPER MICHIGAN

CITY           SKY/WX    TMP DP  RH WIND       PRES   REMARKS
IRON MOUNTAIN  MOCLDY    11  -2  56 W9        29.98S WCI  -2
HOUGHTON       LGT SNOW  11   5  77 NW21      29.95S VSB 3/4 WCI  -8
COPPER HARBOR    N/A     16   9  74 N26G35    29.95F WCI  -3
IRONWOOD       CLOUDY    10   3  72 W13       30.02R WCI  -5
$$

ABBREVIATIONS USED IN REMARKS
   TC - TEMPERATURE IN CELSIUS
  WCI - WIND CHILL INDEX
   HX - HEAT INDEX
  VSB - VISIBILITY




USA.gov is the U.S. government's official web portal to all federal, state and local government web resources and services.